[[{"header":{"parameterUnit":"m.s-1","parameterCategory":1,"la1":30.2991,"la2":30.254,"lo1":-89.0895,"lo2":-89.0444,"dy":0.0017,"dx":0.0017,"nx":28,"ny":28,"refTime":"2024-04-26T21:00:00:Z","depth":0,"parameterNumber":2,"parameterNumberName":"U-component_of_WINDS"},"data":[0,0,0,0,0,0,0,0,0,0,0,0,0,0,0,0,0,0,0,0,0,0,0,0,0,0,0,0,0,0,0,0,0,0,0,0,0,0,0,0,0,0,0,0,0,0,0,0,0,0,0,0,0,0,0,0,0,0,-7.9167,-7.9168,0,-7.9243,-7.9243,-7.9244,-7.9138,-7.9134,-7.913,-7.9127,-7.92,-7.9205,-7.921,0,0,0,0,0,0,0,0,0,0,0,0,0,-7.8929,-7.8934,-7.9167,-7.9168,-7.9169,-7.9242,-7.9243,-7.9244,-7.9139,-7.9134,-7.913,-7.9125,-7.9198,-7.9204,-7.9211,0,0,0,0,0,0,0,0,0,0,0,0,0,-7.9021,-7.8936,-7.9167,-7.9125,-7.9122,-7.9242,-7.9243,-7.9245,-7.914,-7.9134,-7.9128,-7.9123,-7.9196,-7.9204,-7.9212,-7.9375,0,0,-7.9237,-7.924,0,0,0,0,0,0,0,0,-7.9016,-7.903,-7.9131,-7.9129,-7.9125,-7.9175,-7.9186,-7.9288,-7.9141,-7.9133,-7.9127,-7.912,-7.9196,-7.9204,-7.923,-7.9378,-7.9381,-7.9237,-7.9242,-7.9246,-7.9248,0,0,0,0,0,0,0,-7.901,-7.9026,-7.9197,-7.9132,-7.9129,-7.9102,-7.9109,-7.9205,-7.9195,-7.9133,-7.9126,-7.9136,-7.9193,-7.9222,-7.9231,-7.9382,-7.9237,-7.9244,-7.9249,-7.9253,-7.9666,-7.9672,0,0,0,0,0,0,-7.9009,-7.9022,-7.9194,-7.9199,-7.9056,-7.9111,-7.9118,-7.9165,-7.9194,-7.9193,-7.9141,-7.9131,-7.9211,-7.9221,-7.9233,-7.9423,-7.9246,-7.9253,-7.9258,-7.966,-7.9668,-7.9674,0,0,0,0,0,0,-7.9004,-7.9025,-7.9191,-7.9108,-7.9128,-7.9121,-7.9174,-7.9169,-7.9198,-7.92,-7.9197,-7.9173,-7.9207,-7.9222,-7.934,-7.9424,-7.9257,-7.9265,-7.9653,-7.9663,-7.9671,-7.9807,0,0,0,0,0,0,-7.8998,-7.9024,-7.9087,-7.9111,-7.9132,-7.9299,-7.9179,-7.9175,-7.9213,-7.9201,-7.9228,-7.9228,-7.9204,-7.9329,-7.9348,-7.9432,-7.9271,-7.9645,-7.9657,-7.9668,-7.9795,-7.9819,-7.9841,0,0,0,0,0,-7.899,-7.9121,-7.9091,-7.9112,-7.9211,-7.9304,-7.9316,-7.9287,-7.922,-7.9282,-7.9283,-7.9227,-7.9414,-7.9342,-7.9363,-7.9451,-7.964,-7.9654,-7.9667,-7.9784,-7.9814,-7.984,0,0,0,0,0,0,-7.9106,-7.9124,-7.9089,-7.9233,-7.9268,-7.9286,-7.9362,-7.932,-7.9373,-7.9359,-7.932,-7.9328,-7.9454,-7.9465,-7.9385,-7.961,-7.9515,-7.9534,-7.9597,-7.9626,-7.9648,-7.9641,-7.9278,0,0,0,0,0,-7.9149,-7.9224,-7.9235,-7.9361,-7.938,-7.9369,-7.9409,-7.9384,-7.9417,-7.9431,-7.9441,-7.9475,-7.954,-7.9584,-7.9645,-7.9798,-7.98,-7.9869,-7.9892,-7.9911,-7.9926,-8.0005,-8.0034,-7.9719,-7.9719,-7.9719,0,0,-7.9236,-7.9256,-7.9305,-7.9385,-7.9408,-7.9486,-7.9382,-7.9468,-7.9525,-7.9444,-7.9555,-7.9565,-7.96,-7.9736,-7.9796,-7.9748,-8.0014,-7.9928,-7.9943,-7.9948,-8.0022,-8.0052,-8.0078,-7.9729,-7.9727,-7.9726,0,0,-7.9435,-7.9459,-7.9565,-7.9592,-7.963,-7.9622,-7.9648,-7.9673,-7.9676,-7.9789,-7.9729,-7.9796,-7.9911,-7.9938,-7.9967,-8.0179,-8.0128,-8.0201,-8.0318,-8.0396,-8.0421,-8.0442,-8.0515,-8.0542,-8.0216,-8.0217,-8.0217,0,-7.9538,-7.9654,-7.9624,-7.9715,-7.9751,-7.9684,-7.979,-7.9818,-7.9874,-7.9899,-7.9847,-7.9989,-8.0009,-8.0148,-8.02,-8.0228,-8.0254,-8.0194,-8.042,-8.0441,-8.0461,-8.0529,-8.0557,-8.0225,-8.0224,-8.0223,-8.0222,0,-7.9777,-7.9859,-7.994,-7.9997,-8.0042,-8.0141,-8.0125,-8.0175,-8.0147,-8.0145,-8.026,-8.0281,-8.0345,-8.0377,-8.0351,-8.0514,-8.0483,-8.0427,-8.033,-8.05,-8.0563,-8.0589,-8.0237,-8.0234,-8.0231,-8.0229,0,0,-8.0046,-8.0088,-8.0118,-8.0142,-8.0181,-8.0243,-8.0339,-8.0402,-8.0444,-8.0486,-8.0563,-8.0664,-8.0611,-8.0644,-8.0621,-8.069,-8.0853,-8.0624,-8.0624,-8.0662,-8.103,-8.1069,-8.11,-8.0822,-8.0827,-8.0831,-8.1026,0,-8.0242,-8.0407,-8.0384,-8.0542,-8.0615,-8.0555,-8.0638,-8.067,-8.0671,-8.0733,-8.0734,-8.0804,-8.0732,-8.0751,-8.0817,-8.0819,-8.0925,-8.0805,-8.089,-8.0893,-8.0878,-8.1134,-8.1175,-8.1358,-8.1051,-8.1055,-8.1058,0,-8.049,-8.0543,-8.0708,-8.0736,-8.0765,-8.084,-8.0896,-8.0957,-8.0993,-8.0989,-8.1027,-8.0992,-8.1086,-8.0992,-8.112,-8.1039,-8.1073,-8.1079,-8.1086,-8.1088,-8.0982,-8.1139,-8.1416,-8.1442,-8.1098,-8.1095,-8.1092,0,-8.0665,-8.0777,-8.089,-8.0914,-8.095,-8.1003,-8.1021,-8.1051,-8.109,-8.114,-8.1165,-8.1225,-8.1257,-8.1304,-8.1285,-8.1219,-8.1416,-8.1321,-8.1412,-8.1412,-8.1451,-8.1448,-8.1733,-8.1482,-8.1482,-8.1481,-8.1481,0,-8.0883,-8.0985,-8.0969,-8.1038,-8.1151,-8.1125,-8.1238,-8.1247,-8.1275,-8.1344,-8.1297,-8.1362,-8.1336,-8.1399,-8.1386,-8.1492,-8.1508,-8.1505,-8.1499,-8.1507,-8.1506,-8.1524,-8.1509,-8.1488,-8.1487,-8.1485,-8.1484,0,-8.1094,-8.1088,-8.1207,-8.1232,-8.1241,-8.1323,-8.1343,-8.1408,-8.1407,-8.1495,-8.1514,-8.1512,-8.1584,-8.1572,-8.1652,-8.1643,-8.1774,-8.1755,-8.1762,-8.1756,-8.1846,-8.1836,-8.2149,-8.2187,-8.1916,-8.1918,-8.1921,0,-8.1231,-8.1309,-8.1343,-8.1386,-8.1408,-8.1479,-8.1519,-8.1498,-8.1542,-8.1589,-8.1647,-8.1716,-8.1769,-8.1888,-8.1892,-8.1953,-8.1932,-8.2038,-8.1941,-8.1946,-8.1929,-8.1923,-8.1929,-8.2055,-8.2059,-8.2061,-8.2063,0,-8.1473,-8.1467,-8.1528,-8.1589,-8.1639,-8.1686,-8.1727,-8.1765,-8.1747,-8.18,-8.1874,-8.1916,-8.1998,-8.2066,-8.2123,-8.2139,-8.2098,-8.2095,-8.2118,-8.2124,-8.2123,-8.2121,-8.181,-8.2086,-8.2084,-8.2082,-8.2081,-8.208,-8.1648,-8.1714,-8.1748,-8.1818,-8.1848,-8.1888,-8.1949,-8.1957,-8.2019,-8.2085,-8.207,-8.2153,-8.2187,-8.2259,-8.2283,-8.2347,-8.2307,-8.2342,-8.235,-8.2358,-8.2367,-8.2118,-8.2358,-8.2357,-8.2356,-8.2356,-8.2355,0,-8.1884,-8.1904,-8.1969,-8.2029,-8.2084,-8.2044,-8.2089,-8.2136,-8.2211,-8.2247,-8.2301,-8.2386,-8.2452,-8.2464,-8.2526,-8.2575,-8.2558,-8.2592,-8.2585,-8.2589,-8.2401,-8.2372,-8.2605,-8.2605,-8.2605,-8.2605,-8.2605,-8.2605,-8.2013,-8.2121,-8.212,-8.2242,-8.2261,-8.2343,-8.2371,-8.2408,-8.2436,-8.2534,-8.2589,-8.2597,-8.2623,-8.2687,-8.2746,-8.2747,-8.2771,-8.2812,-8.2806,-8.2628,-8.2603,-8.2579,-8.2551,-8.2818,-8.2818,-8.2988,-8.299,-8.2991]},{"header":{"parameterUnit":"m.s-1","parameterCategory":1,"la1":30.2991,"la2":30.254,"lo1":-89.0895,"lo2":-89.0444,"dy":0.0017,"dx":0.0017,"nx":28,"ny":28,"refTime":"2024-04-26T21:00:00:Z","depth":0,"parameterNumber":3,"parameterNumberName":"V-component_of_WINDS"},"data":[0,0,0,0,0,0,0,0,0,0,0,0,0,0,0,0,0,0,0,0,0,0,0,0,0,0,0,0,0,0,0,0,0,0,0,0,0,0,0,0,0,0,0,0,0,0,0,0,0,0,0,0,0,0,0,0,0,0,3.3012,3.3013,0,3.3099,3.31,3.3101,3.3096,3.3095,3.3094,3.3092,3.3177,3.318,3.3184,0,0,0,0,0,0,0,0,0,0,0,0,0,3.2841,3.2844,3.3012,3.3013,3.3014,3.3098,3.31,3.3101,3.3096,3.3095,3.3093,3.3092,3.3176,3.318,3.3184,0,0,0,0,0,0,0,0,0,0,0,0,0,3.292,3.2845,3.3012,3.3022,3.3024,3.3098,3.31,3.3101,3.3097,3.3095,3.3093,3.3091,3.3175,3.318,3.3185,3.3253,0,0,3.32,3.3202,0,0,0,0,0,0,0,0,3.2915,3.2926,3.3019,3.3022,3.3024,3.3085,3.307,3.3152,3.3097,3.3069,3.3092,3.309,3.3148,3.3155,3.3175,3.3257,3.3261,3.3201,3.3204,3.3206,3.3207,0,0,0,0,0,0,0,3.291,3.2922,3.3046,3.3021,3.3023,3.3022,3.3031,3.3086,3.3117,3.3071,3.3071,3.3082,3.3148,3.317,3.3177,3.3262,3.32,3.3205,3.3208,3.321,3.3406,3.3408,0,0,0,0,0,0,3.2902,3.2918,3.3043,3.3049,3.2964,3.3026,3.3037,3.3067,3.3117,3.3123,3.3083,3.3081,3.3162,3.3171,3.318,3.3264,3.3206,3.3211,3.3214,3.3404,3.3406,3.3409,0,0,0,0,0,0,3.2899,3.2914,3.304,3.2983,3.2999,3.3031,3.3065,3.307,3.3091,3.3126,3.3131,3.31,3.3161,3.3173,3.3236,3.3267,3.3213,3.3218,3.3401,3.3405,3.3408,3.3432,0,0,0,0,0,0,3.2894,3.2912,3.2939,3.2984,3.3002,3.3095,3.3067,3.3073,3.3101,3.3099,3.3143,3.3148,3.3161,3.3228,3.3241,3.3273,3.3222,3.3399,3.3403,3.3407,3.3429,3.3436,3.3442,0,0,0,0,0,3.2888,3.2941,3.294,3.2955,3.3036,3.3096,3.3107,3.3121,3.3103,3.313,3.3153,3.3147,3.3262,3.3234,3.3249,3.3283,3.3397,3.3402,3.3406,3.3426,3.3434,3.3442,0,0,0,0,0,0,3.2897,3.2947,3.2947,3.3016,3.3053,3.3096,3.313,3.313,3.317,3.3167,3.3182,3.3192,3.3255,3.3275,3.3244,3.3353,3.3327,3.3335,3.3337,3.3345,3.3352,3.3345,3.3226,0,0,0,0,0,3.2907,3.2953,3.2994,3.3052,3.307,3.3097,3.3124,3.3132,3.3169,3.3184,3.3211,3.3246,3.3291,3.3319,3.3362,3.3432,3.3442,3.3463,3.347,3.3475,3.3481,3.3521,3.3531,3.3425,3.3425,3.3425,0,0,3.2928,3.2962,3.2989,3.3054,3.3083,3.313,3.3109,3.3159,3.3193,3.3191,3.3252,3.3274,3.3314,3.3382,3.3413,3.3401,3.3513,3.3481,3.3485,3.3488,3.3527,3.3537,3.3546,3.3428,3.3427,3.3427,0,0,3.2991,3.3021,3.3073,3.3103,3.3148,3.3166,3.3179,3.3223,3.3237,3.33,3.3299,3.334,3.3416,3.3445,3.347,3.3547,3.3544,3.3561,3.3595,3.3633,3.3642,3.3649,3.3677,3.3686,3.3567,3.3567,3.3567,0,3.3011,3.3082,3.3099,3.315,3.3178,3.3181,3.3234,3.3262,3.3317,3.3337,3.3323,3.342,3.3447,3.3522,3.3541,3.3561,3.3576,3.3555,3.3639,3.3647,3.3654,3.3681,3.3691,3.3569,3.3569,3.3569,3.3568,0,3.3105,3.3154,3.3191,3.3247,3.328,3.3331,3.3356,3.3387,3.3393,3.3413,3.3477,3.3511,3.3561,3.3579,3.3585,3.3656,3.3647,3.3636,3.361,3.3666,3.3691,3.3701,3.3572,3.3571,3.357,3.357,0,0,3.3173,3.324,3.3253,3.3279,3.3331,3.3369,3.3421,3.3471,3.3498,3.3537,3.3581,3.3647,3.3638,3.3666,3.3676,3.371,3.3769,3.3695,3.3696,3.3707,3.3849,3.3856,3.3868,3.3768,3.377,3.3772,3.3846,0,3.324,3.3334,3.3352,3.3432,3.3478,3.3483,3.3528,3.3564,3.3585,3.3626,3.3648,3.3694,3.3679,3.3697,3.3731,3.3755,3.3798,3.375,3.3808,3.381,3.3796,3.3881,3.3888,3.3957,3.3856,3.3858,3.3859,0,3.3331,3.3375,3.3461,3.3508,3.3527,3.3568,3.3617,3.3657,3.3698,3.3711,3.3744,3.375,3.3804,3.3778,3.3852,3.3819,3.3844,3.386,3.3863,3.3867,3.3837,3.3887,3.3979,3.3989,3.3874,3.3873,3.3872,0,3.3372,3.3452,3.3514,3.3537,3.3593,3.3621,3.3646,3.3686,3.3716,3.3759,3.3778,3.3826,3.3852,3.3889,3.3908,3.3887,3.3981,3.3956,3.3993,3.3992,3.4011,3.4009,3.4107,3.4029,3.4028,3.4028,3.4028,0,3.3445,3.3497,3.3534,3.3572,3.3631,3.3652,3.3709,3.3733,3.3769,3.3812,3.3818,3.3858,3.3881,3.3924,3.3939,3.3999,3.4011,3.4022,3.4025,3.4021,3.4019,3.4036,3.4032,3.4031,3.403,3.403,3.4029,0,3.3499,3.3526,3.3594,3.3643,3.3657,3.3698,3.374,3.3777,3.3798,3.3852,3.3866,3.3899,3.395,3.3974,3.4036,3.4047,3.4115,3.4115,3.4101,3.4102,3.4137,3.4133,3.4248,3.4264,3.4176,3.4177,3.4178,0,3.3543,3.3584,3.3638,3.3668,3.3694,3.3742,3.3774,3.3796,3.3829,3.388,3.3911,3.3963,3.4006,3.4088,3.4117,3.4165,3.4166,3.4203,3.4173,3.4168,3.4166,3.4163,3.4167,3.4208,3.4209,3.4209,3.421,0,3.3619,3.3631,3.3677,3.3729,3.3767,3.3808,3.3848,3.3872,3.39,3.3937,3.399,3.4024,3.4089,3.4141,3.4191,3.4216,3.4218,3.422,3.4231,3.4226,3.4216,3.4222,3.4115,3.4216,3.4216,3.4215,3.4215,3.4215,3.367,3.3707,3.3752,3.3803,3.3836,3.3874,3.3912,3.394,3.3985,3.4041,3.4052,3.4109,3.4151,3.4219,3.4246,3.4291,3.4282,3.4297,3.4301,3.4305,3.4307,3.4211,3.43,3.43,3.43,3.43,3.4299,0,3.3746,3.3776,3.3823,3.388,3.3921,3.3922,3.3967,3.4,3.4051,3.4091,3.4134,3.4196,3.4246,3.4281,3.4332,3.4361,3.4363,3.4374,3.4371,3.4377,3.4312,3.4297,3.4371,3.4371,3.4371,3.4371,3.4371,3.4371,3.379,3.3853,3.3871,3.3951,3.398,3.4037,3.4063,3.4098,3.413,3.42,3.4243,3.4266,3.4303,3.4358,3.4404,3.4413,3.4431,3.4442,3.445,3.4389,3.4381,3.4374,3.436,3.4446,3.4446,3.4512,3.4512,3.4513]}]]